ISR891 LLBG-UGTB

Flight info

Callsign ISR891
Flight time 2h 47m
Altitude 36000
Route SUVAS N128 TEZAK L324 SAFTA DCT TOMBI UA16 AYT UW77 HALIL UT54 SIV UW706 TBN UN61 NOLGA N61 LAGAS
Aircraft A320/M-SDE2FGHIJ1LORVWY/SB1

Departure

Time 2026-04-25 09:15
Airport Ben Gurion International Airport (LLBG)

Arrival

Time 2026-04-25 12:02
Airport Tbilisi International Airport (UGTB)
Time Latitude Longitude Altitude Speed Heading
2026-04-25 08:51 32.00262 34.87874 149 ft 0 kts 121°
2026-04-25 09:02 32.00265 34.87868 149 ft 2 kts 123°
2026-04-25 09:03 32.00273 34.87853 149 ft 2 kts 120°
2026-04-25 09:03 32.00278 34.87843 149 ft 1 kts 121°
2026-04-25 09:03 32.00284 34.87827 149 ft 2 kts 94°
2026-04-25 09:03 32.00283 34.87810 149 ft 2 kts 71°
2026-04-25 09:04 32.00275 34.87794 149 ft 2 kts 46°
2026-04-25 09:04 32.00269 34.87787 149 ft 1 kts 32°
2026-04-25 09:04 32.00263 34.87784 149 ft 0 kts 31°
2026-04-25 09:07 32.00271 34.87790 150 ft 3 kts 30°
2026-04-25 09:07 32.00303 34.87812 150 ft 7 kts 33°
2026-04-25 09:07 32.00352 34.87848 150 ft 1 kts 31°
2026-04-25 09:09 32.00357 34.87852 150 ft 4 kts 31°
2026-04-25 09:09 32.00407 34.87888 150 ft 11 kts 32°
2026-04-25 09:10 32.00453 34.87921 150 ft 0 kts 31°
2026-04-25 09:10 32.00457 34.87925 150 ft 3 kts 31°
2026-04-25 09:10 32.00497 34.87954 150 ft 10 kts 27°
2026-04-25 09:10 32.00581 34.87925 150 ft 15 kts 356°
2026-04-25 09:11 32.00770 34.88051 150 ft 20 kts 32°
2026-04-25 09:11 32.00909 34.88151 150 ft 25 kts 31°
2026-04-25 09:11 32.01076 34.88271 150 ft 29 kts 31°
2026-04-25 09:12 32.01261 34.88410 150 ft 32 kts 38°
2026-04-25 09:12 32.01421 34.88619 150 ft 35 kts 59°
2026-04-25 09:12 32.01505 34.88894 150 ft 36 kts 80°
2026-04-25 09:12 32.01557 34.89154 151 ft 19 kts 42°
2026-04-25 09:13 32.01702 34.89145 151 ft 23 kts 345°
2026-04-25 09:13 32.01738 34.89024 151 ft 1 kts 259°
2026-04-25 09:13 32.01738 34.89023 151 ft 0 kts 259°
2026-04-25 09:13 32.01737 34.89020 151 ft 1 kts 259°
2026-04-25 09:14 32.01732 34.88990 151 ft 12 kts 259°
2026-04-25 09:14 32.01670 34.88588 150 ft 83 kts 261°
2026-04-25 09:14 32.01531 34.87682 150 ft 140 kts 259°
2026-04-25 09:14 32.01328 34.86357 265 ft 175 kts 261°
2026-04-25 09:15 32.01111 34.84962 767 ft 174 kts 259°
2026-04-25 09:15 32.00840 34.83567 1273 ft 176 kts 257°
2026-04-25 09:15 32.00546 34.82177 1790 ft 178 kts 256°
2026-04-25 09:15 32.00234 34.80716 2185 ft 190 kts 256°
2026-04-25 09:16 31.99899 34.79144 2516 ft 206 kts 256°
2026-04-25 09:16 31.99538 34.77429 2840 ft 226 kts 256°
2026-04-25 09:16 31.99239 34.75502 3160 ft 248 kts 269°
2026-04-25 09:16 31.99523 34.73444 3602 ft 264 kts 288°
2026-04-25 09:17 32.00877 34.69239 4994 ft 278 kts 290°
2026-04-25 09:17 32.01577 34.67078 5822 ft 280 kts 290°
2026-04-25 09:17 32.02245 34.64905 6650 ft 282 kts 285°
2026-04-25 09:18 32.02687 34.62647 7360 ft 284 kts 277°
2026-04-25 09:18 32.02877 34.60338 7812 ft 285 kts 272°
2026-04-25 09:18 32.02990 34.58009 8001 ft 285 kts 271°
2026-04-25 09:18 32.03096 34.55675 8012 ft 284 kts 272°
2026-04-25 09:19 32.03209 34.53365 8005 ft 283 kts 272°
2026-04-25 09:19 32.03330 34.51008 8072 ft 286 kts 272°
2026-04-25 09:19 32.03452 34.48646 8587 ft 292 kts 272°
2026-04-25 09:19 32.03576 34.46282 9495 ft 289 kts 272°
2026-04-25 09:20 32.03701 34.43943 10325 ft 290 kts 272°
2026-04-25 09:20 32.03839 34.41525 10861 ft 302 kts 272°
2026-04-25 09:20 32.03984 34.39002 11218 ft 319 kts 272°
2026-04-25 09:20 32.04137 34.36330 11707 ft 330 kts 272°
2026-04-25 09:21 32.04293 34.33625 12452 ft 332 kts 271°
2026-04-25 09:21 32.04448 34.30909 13224 ft 334 kts 271°
2026-04-25 09:21 32.04602 34.28209 13977 ft 335 kts 271°
2026-04-25 09:21 32.04779 34.25469 14632 ft 340 kts 275°
2026-04-25 09:22 32.05327 34.22689 15087 ft 353 kts 286°
2026-04-25 09:22 32.06355 34.20040 15682 ft 361 kts 296°
2026-04-25 09:22 32.07622 34.17510 16352 ft 363 kts 297°
2026-04-25 09:22 32.08950 34.14938 16995 ft 366 kts 298°
2026-04-25 09:23 32.10259 34.12403 17593 ft 369 kts 297°
2026-04-25 09:23 32.11611 34.09766 18228 ft 371 kts 297°
2026-04-25 09:23 32.12935 34.07170 18812 ft 374 kts 297°
2026-04-25 09:23 32.14288 34.04505 19380 ft 377 kts 297°
2026-04-25 09:24 32.15642 34.01837 19892 ft 381 kts 297°
2026-04-25 09:24 32.17046 33.99157 20382 ft 386 kts 300°
2026-04-25 09:24 32.18573 33.96550 20897 ft 390 kts 301°
2026-04-25 09:24 32.20155 33.93928 21407 ft 394 kts 301°
2026-04-25 09:25 32.21759 33.91275 21911 ft 397 kts 301°
2026-04-25 09:25 32.23368 33.88612 22391 ft 400 kts 301°
2026-04-25 09:25 32.24985 33.85930 22861 ft 403 kts 301°
2026-04-25 09:25 32.26615 33.83224 23340 ft 406 kts 301°
2026-04-25 09:26 32.28249 33.80508 23784 ft 409 kts 301°
2026-04-25 09:26 32.29898 33.77765 24234 ft 411 kts 301°
2026-04-25 09:26 32.31561 33.74996 24675 ft 414 kts 301°
2026-04-25 09:26 32.33221 33.72228 25090 ft 416 kts 301°
2026-04-25 09:27 32.34906 33.69419 25506 ft 418 kts 301°
2026-04-25 09:27 32.36581 33.66627 25913 ft 420 kts 301°
2026-04-25 09:27 32.38268 33.63809 26307 ft 422 kts 301°
2026-04-25 09:27 32.39977 33.60953 26680 ft 425 kts 301°
2026-04-25 09:28 32.41686 33.58093 27034 ft 427 kts 301°
2026-04-25 09:28 32.43392 33.55238 27384 ft 429 kts 301°
2026-04-25 09:28 32.45109 33.52360 27730 ft 431 kts 301°
2026-04-25 09:28 32.46832 33.49472 28100 ft 432 kts 301°
2026-04-25 09:29 32.48574 33.46552 28549 ft 431 kts 301°
2026-04-25 09:29 32.50269 33.43708 28999 ft 429 kts 300°
2026-04-25 09:29 32.52001 33.40800 29466 ft 427 kts 300°
2026-04-25 09:29 32.53714 33.37921 29898 ft 426 kts 300°
2026-04-25 09:30 32.55395 33.35092 30288 ft 426 kts 300°
2026-04-25 09:30 32.57109 33.32200 30729 ft 424 kts 299°
2026-04-25 09:30 32.58786 33.29359 31180 ft 422 kts 299°
2026-04-25 09:30 32.60453 33.26537 31619 ft 419 kts 299°
2026-04-25 09:31 32.62111 33.23732 32030 ft 418 kts 299°
2026-04-25 09:31 32.63787 33.20898 32443 ft 416 kts 299°
2026-04-25 09:31 32.65447 33.18092 32828 ft 414 kts 299°
2026-04-25 09:31 32.67096 33.15301 33194 ft 412 kts 299°
2026-04-25 09:32 32.68722 33.12550 33569 ft 410 kts 298°
2026-04-25 09:32 32.70351 33.09790 33906 ft 409 kts 298°
2026-04-25 09:32 32.71977 33.07031 34196 ft 408 kts 298°
2026-04-25 09:32 32.73591 33.04291 34434 ft 407 kts 298°
2026-04-25 09:33 32.75206 33.01546 34640 ft 407 kts 298°
2026-04-25 09:33 32.76823 32.98798 34843 ft 407 kts 298°
2026-04-25 09:33 32.78455 32.96020 35033 ft 407 kts 298°
2026-04-25 09:33 32.80063 32.93283 35201 ft 408 kts 298°
2026-04-25 09:34 32.81679 32.90531 35346 ft 409 kts 298°
2026-04-25 09:34 32.83304 32.87759 35509 ft 409 kts 298°
2026-04-25 09:34 32.84925 32.84994 35667 ft 409 kts 298°
2026-04-25 09:34 32.86541 32.82235 35819 ft 410 kts 298°
2026-04-25 09:35 32.88179 32.79436 35898 ft 411 kts 298°
2026-04-25 09:35 32.91437 32.73866 35909 ft 411 kts 298°
2026-04-25 09:36 32.94696 32.68287 35906 ft 411 kts 298°
2026-04-25 09:36 32.97947 32.62709 35914 ft 412 kts 298°
2026-04-25 09:37 33.01202 32.57120 35912 ft 412 kts 298°
2026-04-25 09:37 33.04467 32.51498 35914 ft 413 kts 298°
2026-04-25 09:38 33.07726 32.45888 35911 ft 412 kts 298°
2026-04-25 09:38 33.10979 32.40279 35916 ft 413 kts 299°
2026-04-25 09:39 33.14270 32.34644 35910 ft 413 kts 298°
2026-04-25 09:39 33.17520 32.29022 35910 ft 413 kts 298°
2026-04-25 09:40 33.22397 32.20558 35925 ft 413 kts 298°
2026-04-25 09:40 33.25635 32.14926 35912 ft 415 kts 298°
2026-04-25 09:41 33.28835 32.09369 35922 ft 415 kts 298°
2026-04-25 09:41 33.31728 32.04319 35905 ft 415 kts 298°
2026-04-25 09:42 33.34967 31.98658 35917 ft 415 kts 298°
2026-04-25 09:42 33.38217 31.92977 35928 ft 415 kts 299°
2026-04-25 09:43 33.41490 31.87268 35920 ft 416 kts 301°
2026-04-25 09:43 33.45380 31.82091 35921 ft 425 kts 313°
2026-04-25 09:44 33.50255 31.77940 35926 ft 435 kts 326°
2026-04-25 09:44 33.55861 31.75132 35926 ft 443 kts 337°
2026-04-25 09:45 33.61798 31.73004 35919 ft 445 kts 338°
2026-04-25 09:45 33.67709 31.70902 35921 ft 445 kts 338°
2026-04-25 09:46 33.73651 31.68758 35925 ft 444 kts 338°
2026-04-25 09:46 33.79542 31.66619 35926 ft 443 kts 338°
2026-04-25 09:47 33.85439 31.64466 35922 ft 443 kts 338°
2026-04-25 09:47 33.91328 31.62313 35915 ft 443 kts 338°
2026-04-25 09:48 33.97218 31.60157 35915 ft 443 kts 338°
2026-04-25 09:48 34.03135 31.57990 35918 ft 443 kts 338°
2026-04-25 09:49 34.09022 31.55830 35911 ft 443 kts 338°
2026-04-25 09:49 34.14956 31.53659 35915 ft 444 kts 339°
2026-04-25 09:50 34.20865 31.51494 35927 ft 444 kts 339°
2026-04-25 09:50 34.26773 31.49323 35922 ft 444 kts 339°
2026-04-25 09:51 34.32651 31.47155 35926 ft 444 kts 339°
2026-04-25 09:51 34.38562 31.44969 35936 ft 444 kts 339°
2026-04-25 09:52 34.44446 31.42790 35926 ft 444 kts 339°
2026-04-25 09:52 34.50365 31.40597 35930 ft 444 kts 339°
2026-04-25 09:53 34.56289 31.38398 35927 ft 444 kts 339°
2026-04-25 09:53 34.62174 31.36213 35929 ft 444 kts 339°
2026-04-25 09:54 34.68081 31.34008 35939 ft 444 kts 338°
2026-04-25 09:54 34.74016 31.31768 35942 ft 444 kts 339°
2026-04-25 09:55 34.79901 31.29558 35938 ft 444 kts 339°
2026-04-25 09:55 34.85833 31.27335 35935 ft 445 kts 339°
2026-04-25 09:56 34.91745 31.25120 35941 ft 445 kts 339°
2026-04-25 09:56 34.97644 31.22907 35930 ft 446 kts 339°
2026-04-25 09:57 35.03552 31.20688 35935 ft 445 kts 339°
2026-04-25 09:57 35.09465 31.18464 35936 ft 445 kts 339°
2026-04-25 09:58 35.15367 31.16250 35938 ft 444 kts 339°
2026-04-25 09:58 35.21296 31.14022 35944 ft 444 kts 339°
2026-04-25 09:59 35.27174 31.11804 35940 ft 444 kts 339°
2026-04-25 09:59 35.33093 31.09566 35945 ft 444 kts 339°
2026-04-25 10:00 35.38995 31.07328 35945 ft 445 kts 339°
2026-04-25 10:00 35.44915 31.05080 35946 ft 445 kts 339°
2026-04-25 10:01 35.50828 31.02832 35953 ft 445 kts 339°
2026-04-25 10:01 35.56731 31.00585 35951 ft 445 kts 339°
2026-04-25 10:02 35.62642 30.98331 35947 ft 444 kts 339°
2026-04-25 10:02 35.68519 30.96085 35954 ft 444 kts 339°
2026-04-25 10:03 35.74428 30.93823 35955 ft 444 kts 339°
2026-04-25 10:03 35.80292 30.91578 35954 ft 444 kts 339°
2026-04-25 10:04 35.86216 30.89306 35958 ft 444 kts 339°
2026-04-25 10:04 35.92086 30.87052 35959 ft 444 kts 339°
2026-04-25 10:05 35.98000 30.84784 35966 ft 445 kts 340°
2026-04-25 10:05 36.04031 30.83043 35958 ft 448 kts 347°
2026-04-25 10:06 36.10231 30.82194 35957 ft 451 kts 355°
2026-04-25 10:06 36.16506 30.81974 35957 ft 451 kts 356°
2026-04-25 10:07 36.22821 30.81799 35952 ft 451 kts 356°
2026-04-25 10:07 36.29064 30.81602 35954 ft 451 kts 356°
2026-04-25 10:08 36.35350 30.81396 35952 ft 451 kts 356°
2026-04-25 10:08 36.41638 30.81187 35953 ft 451 kts 356°
2026-04-25 10:09 36.47903 30.80970 35950 ft 451 kts 356°
2026-04-25 10:09 36.54182 30.80750 35951 ft 451 kts 356°
2026-04-25 10:10 36.60411 30.80536 35949 ft 450 kts 356°
2026-04-25 10:10 36.66695 30.80320 35945 ft 450 kts 356°
2026-04-25 10:11 36.72975 30.80104 35967 ft 450 kts 356°
2026-04-25 10:11 36.79233 30.79888 35973 ft 450 kts 356°
2026-04-25 10:12 36.85501 30.79789 35974 ft 451 kts
2026-04-25 10:12 36.91687 30.80824 35979 ft 454 kts 12°
2026-04-25 10:13 36.94708 30.81863 35974 ft 454 kts 18°
2026-04-25 10:13 37.00510 30.84969 35974 ft 454 kts 27°
2026-04-25 10:14 37.06075 30.88742 35980 ft 453 kts 28°
2026-04-25 10:14 37.11585 30.92495 35982 ft 453 kts 28°
2026-04-25 10:15 37.17119 30.96217 35994 ft 453 kts 28°
2026-04-25 10:15 37.22689 30.99971 36009 ft 453 kts 28°
2026-04-25 10:16 37.28199 31.03698 36022 ft 453 kts 28°
2026-04-25 10:16 37.33776 31.07478 36028 ft 453 kts 27°
2026-04-25 10:17 37.39371 31.11010 36034 ft 453 kts 24°
2026-04-25 10:17 37.45104 31.14380 36038 ft 453 kts 24°
2026-04-25 10:18 37.50804 31.17738 36042 ft 452 kts 24°
2026-04-25 10:18 37.56465 31.21090 36050 ft 452 kts 24°
2026-04-25 10:19 37.62169 31.24477 36056 ft 452 kts 24°
2026-04-25 10:19 37.67860 31.27864 36063 ft 452 kts 24°
2026-04-25 10:20 37.73521 31.31239 36064 ft 452 kts 24°
2026-04-25 10:20 37.79201 31.34632 36067 ft 452 kts 24°
2026-04-25 10:21 37.84871 31.38025 36069 ft 451 kts 24°
2026-04-25 10:21 37.90538 31.41424 36113 ft 452 kts 24°
2026-04-25 10:22 37.96217 31.44837 36142 ft 452 kts 23°
2026-04-25 10:22 38.01890 31.48250 36096 ft 452 kts 23°
2026-04-25 10:23 38.07579 31.51680 36081 ft 453 kts 23°
2026-04-25 10:23 38.13228 31.55097 36079 ft 452 kts 24°
2026-04-25 10:24 38.18909 31.58642 36078 ft 452 kts 24°
2026-04-25 10:24 38.24515 31.62173 36078 ft 452 kts 24°
2026-04-25 10:25 38.30155 31.65733 36076 ft 452 kts 25°
2026-04-25 10:25 38.35775 31.69316 36075 ft 452 kts 25°
2026-04-25 10:26 38.41385 31.72886 36074 ft 452 kts 25°
2026-04-25 10:26 38.47019 31.76464 36070 ft 452 kts 25°
2026-04-25 10:27 38.52623 31.80025 36070 ft 451 kts 25°
2026-04-25 10:27 38.58252 31.83608 36070 ft 451 kts 25°
2026-04-25 10:28 38.63855 31.87180 36070 ft 451 kts 25°
2026-04-25 10:28 38.69456 31.90759 36066 ft 451 kts 25°
2026-04-25 10:29 38.75042 31.94332 36063 ft 450 kts 25°
2026-04-25 10:29 38.80676 31.97944 36067 ft 450 kts 25°
2026-04-25 10:30 38.86270 32.01538 36069 ft 449 kts 24°
2026-04-25 10:30 38.91857 32.05131 36065 ft 449 kts 25°
2026-04-25 10:31 38.97403 32.08704 36066 ft 450 kts 24°
2026-04-25 10:31 39.03008 32.12322 36064 ft 449 kts 25°
2026-04-25 10:32 39.08585 32.15928 36066 ft 449 kts 25°
2026-04-25 10:32 39.14157 32.19529 36066 ft 448 kts 25°
2026-04-25 10:33 39.19722 32.23134 36068 ft 448 kts 25°
2026-04-25 10:33 39.25259 32.26736 36065 ft 446 kts 25°
2026-04-25 10:34 39.30804 32.30351 36074 ft 446 kts 26°
2026-04-25 10:34 39.35937 32.34805 36067 ft 449 kts 40°
2026-04-25 10:35 39.40056 32.40812 36075 ft 449 kts 56°
2026-04-25 10:35 39.42862 32.47951 36070 ft 447 kts 71°
2026-04-25 10:36 39.44265 32.55808 36075 ft 448 kts 82°
2026-04-25 10:36 39.45093 32.63739 36078 ft 447 kts 82°
2026-04-25 10:37 39.45921 32.71719 36076 ft 448 kts 83°
2026-04-25 10:37 39.46763 32.79664 36072 ft 448 kts 83°
2026-04-25 10:38 39.47610 32.87655 36078 ft 447 kts 83°
2026-04-25 10:38 39.48453 32.95592 36080 ft 446 kts 83°
2026-04-25 10:39 39.49294 33.03509 36079 ft 447 kts 83°
2026-04-25 10:39 39.50129 33.11454 36084 ft 447 kts 83°
2026-04-25 10:40 39.50964 33.19458 36074 ft 448 kts 83°
2026-04-25 10:40 39.51790 33.27408 36074 ft 448 kts 83°
2026-04-25 10:41 39.52611 33.35391 36074 ft 449 kts 83°
2026-04-25 10:41 39.53422 33.43390 36083 ft 449 kts 83°
2026-04-25 10:42 39.54225 33.51375 36083 ft 448 kts 83°
2026-04-25 10:42 39.55022 33.59392 36078 ft 450 kts 83°
2026-04-25 10:43 39.55819 33.67386 36076 ft 449 kts 83°
2026-04-25 10:43 39.56612 33.75370 36078 ft 450 kts 83°
2026-04-25 10:44 39.57401 33.83399 36077 ft 450 kts 83°
2026-04-25 10:44 39.58180 33.91395 36075 ft 449 kts 83°
2026-04-25 10:45 39.58956 33.99406 36072 ft 450 kts 83°
2026-04-25 10:45 39.59728 34.07463 36083 ft 450 kts 83°
2026-04-25 10:46 39.60491 34.15480 36079 ft 450 kts 83°
2026-04-25 10:46 39.61251 34.23517 36078 ft 452 kts 83°
2026-04-25 10:47 39.62005 34.31566 36082 ft 451 kts 83°
2026-04-25 10:47 39.62756 34.39631 36080 ft 451 kts 83°
2026-04-25 10:48 39.63507 34.47705 36078 ft 452 kts 83°
2026-04-25 10:48 39.64247 34.55756 36083 ft 451 kts 83°
2026-04-25 10:49 39.64984 34.63846 36083 ft 453 kts 83°
2026-04-25 10:49 39.65712 34.71912 36081 ft 453 kts 84°
2026-04-25 10:50 39.66439 34.80054 36082 ft 453 kts 84°
2026-04-25 10:50 39.67157 34.88122 36089 ft 454 kts 84°
2026-04-25 10:51 39.67874 34.96246 36093 ft 455 kts 84°
2026-04-25 10:51 39.68587 35.04404 36092 ft 455 kts 84°
2026-04-25 10:52 39.69291 35.12528 36092 ft 455 kts 84°
2026-04-25 10:52 39.69991 35.20676 36091 ft 456 kts 84°
2026-04-25 10:53 39.70687 35.28841 36091 ft 456 kts 84°
2026-04-25 10:53 39.71376 35.36984 36095 ft 456 kts 84°
2026-04-25 10:54 39.72058 35.45126 36093 ft 457 kts 84°
2026-04-25 10:54 39.72736 35.53297 36094 ft 457 kts 84°
2026-04-25 10:55 39.73413 35.61499 36092 ft 457 kts 84°
2026-04-25 10:55 39.74079 35.69674 36100 ft 457 kts 85°
2026-04-25 10:56 39.74740 35.77904 36101 ft 457 kts 85°
2026-04-25 10:56 39.75390 35.86057 36095 ft 457 kts 85°
2026-04-25 10:57 39.76042 35.94296 36097 ft 458 kts 85°
2026-04-25 10:57 39.76684 36.02499 36106 ft 458 kts 85°
2026-04-25 10:58 39.77317 36.10654 36105 ft 458 kts 85°
2026-04-25 10:58 39.77950 36.18900 36107 ft 459 kts 85°
2026-04-25 10:59 39.78411 36.27159 36108 ft 458 kts 89°
2026-04-25 10:59 39.78508 36.35427 36112 ft 458 kts 90°
2026-04-25 11:00 39.78582 36.43652 36118 ft 458 kts 90°
2026-04-25 11:00 39.78658 36.51917 36119 ft 458 kts 90°
2026-04-25 11:01 39.78732 36.60139 36126 ft 459 kts 90°
2026-04-25 11:01 39.78801 36.68406 36129 ft 459 kts 91°
2026-04-25 11:02 39.78863 36.76693 36130 ft 460 kts 91°
2026-04-25 11:02 39.79377 36.84972 36132 ft 461 kts 81°
2026-04-25 11:03 39.81015 36.93022 36135 ft 461 kts 69°
2026-04-25 11:03 39.83700 37.00494 36138 ft 461 kts 60°
2026-04-25 11:04 39.86879 37.07735 36137 ft 461 kts 59°
2026-04-25 11:04 39.90058 37.14987 36136 ft 461 kts 59°
2026-04-25 11:05 39.93192 37.22214 36134 ft 461 kts 59°
2026-04-25 11:05 39.96341 37.29518 36142 ft 461 kts 59°
2026-04-25 11:06 39.99467 37.36791 36139 ft 461 kts 59°
2026-04-25 11:06 40.02583 37.44055 36140 ft 461 kts 59°
2026-04-25 11:07 40.05698 37.51339 36132 ft 461 kts 59°
2026-04-25 11:07 40.08847 37.58712 36143 ft 461 kts 59°
2026-04-25 11:08 40.11988 37.65999 36144 ft 460 kts 59°
2026-04-25 11:08 40.15134 37.73313 36149 ft 460 kts 60°
2026-04-25 11:09 40.18248 37.80613 36153 ft 461 kts 59°
2026-04-25 11:09 40.21376 37.87965 36155 ft 461 kts 60°
2026-04-25 11:10 40.24490 37.95302 36162 ft 461 kts 60°
2026-04-25 11:10 40.27598 38.02649 36172 ft 461 kts 59°
2026-04-25 11:11 40.30718 38.10043 36175 ft 461 kts 59°
2026-04-25 11:11 40.33775 38.17347 36170 ft 460 kts 60°
2026-04-25 11:12 40.36755 38.24806 36162 ft 460 kts 61°
2026-04-25 11:12 40.39775 38.32163 36155 ft 460 kts 59°
2026-04-25 11:13 40.42945 38.39443 36147 ft 459 kts 58°
2026-04-25 11:13 40.46089 38.46723 36138 ft 459 kts 59°
2026-04-25 11:14 40.49211 38.54018 36134 ft 459 kts 59°
2026-04-25 11:14 40.52322 38.61395 36131 ft 459 kts 60°
2026-04-25 11:15 40.55326 38.68773 36131 ft 458 kts 61°
2026-04-25 11:15 40.58328 38.76191 36133 ft 458 kts 60°
2026-04-25 11:16 40.62808 38.87235 36132 ft 458 kts 60°
2026-04-25 11:16 40.65814 38.94652 36132 ft 458 kts 60°
2026-04-25 11:17 40.68789 39.02035 36130 ft 458 kts 61°
2026-04-25 11:17 40.71766 39.09451 36129 ft 458 kts 60°
2026-04-25 11:18 40.74734 39.16863 36122 ft 457 kts 60°
2026-04-25 11:18 40.77693 39.24271 36121 ft 457 kts 60°
2026-04-25 11:19 40.80661 39.31721 36123 ft 458 kts 60°
2026-04-25 11:19 40.83623 39.39171 36127 ft 458 kts 60°
2026-04-25 11:20 40.86570 39.46607 36125 ft 457 kts 60°
2026-04-25 11:20 40.89496 39.54007 36127 ft 457 kts 60°
2026-04-25 11:21 40.92435 39.61466 36131 ft 457 kts 60°
2026-04-25 11:21 40.95351 39.68889 36134 ft 457 kts 61°
2026-04-25 11:22 40.97670 39.75142 36135 ft 457 kts 65°
2026-04-25 11:22 41.00156 39.84428 36136 ft 458 kts 74°
2026-04-25 11:23 41.01529 39.92680 36144 ft 459 kts 78°
2026-04-25 11:23 41.02742 40.00957 36143 ft 460 kts 78°
2026-04-25 11:24 41.03965 40.09275 36143 ft 461 kts 78°
2026-04-25 11:24 41.05191 40.17590 36142 ft 461 kts 78°
2026-04-25 11:25 41.06419 40.25943 36142 ft 461 kts 78°
2026-04-25 11:25 41.07645 40.34315 36137 ft 461 kts 78°
2026-04-25 11:26 41.08857 40.42647 36142 ft 461 kts 78°
2026-04-25 11:26 41.10064 40.50977 36145 ft 461 kts 78°
2026-04-25 11:27 41.11292 40.59316 36146 ft 462 kts 78°
2026-04-25 11:27 41.12312 40.66297 36145 ft 461 kts 79°
2026-04-25 11:28 41.13701 40.76019 36145 ft 462 kts 79°
2026-04-25 11:28 41.14886 40.84385 36143 ft 462 kts 79°
2026-04-25 11:29 41.16063 40.92735 36143 ft 462 kts 79°
2026-04-25 11:29 41.17237 41.01117 36146 ft 463 kts 78°
2026-04-25 11:30 41.18409 41.09526 36149 ft 463 kts 78°
2026-04-25 11:30 41.19573 41.17921 36155 ft 463 kts 78°
2026-04-25 11:31 41.20723 41.26264 36162 ft 463 kts 78°
2026-04-25 11:31 41.21885 41.34742 36162 ft 464 kts 78°
2026-04-25 11:32 41.23031 41.43154 36156 ft 464 kts 78°
2026-04-25 11:32 41.24168 41.51541 36150 ft 464 kts 78°
2026-04-25 11:33 41.25301 41.59955 36156 ft 464 kts 78°
2026-04-25 11:33 41.26426 41.68359 36165 ft 465 kts 79°
2026-04-25 11:34 41.27547 41.76833 36167 ft 465 kts 79°
2026-04-25 11:34 41.28662 41.85290 36167 ft 465 kts 79°
2026-04-25 11:35 41.29778 41.93782 36166 ft 466 kts 79°
2026-04-25 11:35 41.30883 42.02235 36162 ft 465 kts 79°
2026-04-25 11:36 41.31980 42.10700 36151 ft 466 kts 79°
2026-04-25 11:36 41.33062 42.19140 36155 ft 466 kts 79°
2026-04-25 11:37 41.34150 42.27679 36149 ft 466 kts 79°
2026-04-25 11:37 41.35220 42.36138 36135 ft 467 kts 79°
2026-04-25 11:38 41.36290 42.44644 36124 ft 467 kts 79°
2026-04-25 11:38 41.37353 42.53156 36116 ft 467 kts 79°
2026-04-25 11:39 41.38408 42.61653 36125 ft 467 kts 79°
2026-04-25 11:39 41.39462 42.70217 36126 ft 467 kts 79°
2026-04-25 11:40 41.40504 42.78745 36143 ft 468 kts 80°
2026-04-25 11:40 41.41541 42.87293 36108 ft 466 kts 79°
2026-04-25 11:41 41.41869 42.90000 35968 ft 463 kts 79°
2026-04-25 11:41 41.42376 42.94208 35512 ft 462 kts 79°
2026-04-25 11:41 41.42886 42.98444 34986 ft 462 kts 79°
2026-04-25 11:41 41.43391 43.02612 34543 ft 459 kts 79°
2026-04-25 11:42 41.43895 43.06796 33996 ft 457 kts 79°
2026-04-25 11:42 41.44400 43.10990 33347 ft 457 kts 79°
2026-04-25 11:42 41.44894 43.15120 32643 ft 460 kts 79°
2026-04-25 11:42 41.45400 43.19367 31937 ft 461 kts 79°
2026-04-25 11:43 41.45897 43.23561 31222 ft 462 kts 79°
2026-04-25 11:43 41.46397 43.27801 30480 ft 464 kts 79°
2026-04-25 11:43 41.46892 43.32010 29750 ft 466 kts 79°
2026-04-25 11:43 41.47393 43.36269 28982 ft 467 kts 78°
2026-04-25 11:44 41.47898 43.40595 28144 ft 470 kts 78°
2026-04-25 11:44 41.48396 43.44874 27352 ft 472 kts 78°
2026-04-25 11:44 41.48893 43.49155 26816 ft 467 kts 78°
2026-04-25 11:44 41.49385 43.53413 26313 ft 462 kts 78°
2026-04-25 11:45 41.49870 43.57614 25739 ft 459 kts 78°
2026-04-25 11:45 41.50345 43.61767 25157 ft 456 kts 78°
2026-04-25 11:45 41.50820 43.65911 24599 ft 453 kts 79°
2026-04-25 11:45 41.51291 43.70048 24064 ft 450 kts 79°
2026-04-25 11:46 41.51753 43.74136 23519 ft 447 kts 79°
2026-04-25 11:46 41.52216 43.78231 22991 ft 443 kts 79°
2026-04-25 11:46 41.52672 43.82292 22482 ft 440 kts 78°
2026-04-25 11:46 41.53123 43.86281 21957 ft 437 kts 79°
2026-04-25 11:47 41.53569 43.90248 21443 ft 434 kts 78°
2026-04-25 11:47 41.54015 43.94241 20923 ft 431 kts 78°
2026-04-25 11:47 41.54449 43.98145 20385 ft 428 kts 78°
2026-04-25 11:47 41.54887 44.02072 19881 ft 425 kts 78°
2026-04-25 11:48 41.55313 44.05938 19360 ft 422 kts 78°
2026-04-25 11:48 41.55735 44.09761 18882 ft 418 kts 78°
2026-04-25 11:48 41.56152 44.13565 18367 ft 416 kts 78°
2026-04-25 11:48 41.56563 44.17307 17853 ft 413 kts 78°
2026-04-25 11:49 41.56942 44.21073 17354 ft 412 kts 82°
2026-04-25 11:49 41.56965 44.24906 16803 ft 413 kts 92°
2026-04-25 11:49 41.56589 44.28684 16350 ft 411 kts 98°
2026-04-25 11:49 41.56077 44.32394 15846 ft 408 kts 99°
2026-04-25 11:50 41.55552 44.36056 15353 ft 406 kts 99°
2026-04-25 11:50 41.55035 44.39764 14841 ft 404 kts 98°
2026-04-25 11:50 41.54549 44.43385 14352 ft 401 kts 99°
2026-04-25 11:50 41.54065 44.47062 13927 ft 396 kts 99°
2026-04-25 11:51 41.53603 44.50582 13662 ft 379 kts 98°
2026-04-25 11:51 41.53163 44.53930 13310 ft 360 kts 99°
2026-04-25 11:51 41.52743 44.57141 12943 ft 345 kts 99°
2026-04-25 11:51 41.52335 44.60248 12456 ft 342 kts 99°
2026-04-25 11:52 41.51927 44.63321 12111 ft 338 kts 99°
2026-04-25 11:52 41.51517 44.66406 11777 ft 334 kts 100°
2026-04-25 11:52 41.51120 44.69421 11429 ft 330 kts 101°
2026-04-25 11:52 41.50717 44.72456 11121 ft 326 kts 101°
2026-04-25 11:53 41.50319 44.75429 10778 ft 323 kts 101°
2026-04-25 11:53 41.49928 44.78331 10414 ft 321 kts 101°
2026-04-25 11:53 41.49528 44.81293 10099 ft 317 kts 102°
2026-04-25 11:53 41.49140 44.84153 9774 ft 313 kts 102°
2026-04-25 11:54 41.48755 44.86994 9449 ft 310 kts 102°
2026-04-25 11:54 41.48369 44.89821 9070 ft 309 kts 101°
2026-04-25 11:54 41.47600 44.95431 8375 ft 304 kts 101°
2026-04-25 11:55 41.47281 44.97769 8091 ft 302 kts 101°
2026-04-25 11:55 41.46911 45.00478 7886 ft 290 kts 100°
2026-04-25 11:55 41.46555 45.03079 7584 ft 277 kts 100°
2026-04-25 11:55 41.46321 45.05565 7265 ft 266 kts 83°
2026-04-25 11:56 41.46932 45.07803 6897 ft 251 kts 47°
2026-04-25 11:56 41.48119 45.09412 6671 ft 233 kts 36°
2026-04-25 11:56 41.49274 45.10761 6583 ft 210 kts 36°
2026-04-25 11:56 41.50332 45.12047 6325 ft 198 kts 34°
2026-04-25 11:57 41.51475 45.12872 6066 ft 173 kts
2026-04-25 11:57 41.52570 45.12720 5751 ft 150 kts 330°
2026-04-25 11:57 41.53421 45.11981 5340 ft 145 kts 319°
2026-04-25 11:57 41.54192 45.11118 4889 ft 146 kts 317°
2026-04-25 11:58 41.54954 45.10209 4433 ft 146 kts 317°
2026-04-25 11:58 41.55701 45.09290 4160 ft 148 kts 317°
2026-04-25 11:58 41.56455 45.08346 3998 ft 148 kts 316°
2026-04-25 11:58 41.57164 45.07448 3774 ft 135 kts 317°
2026-04-25 11:59 41.57836 45.06596 3604 ft 133 kts 316°
2026-04-25 11:59 41.58511 45.05741 3437 ft 134 kts 316°
2026-04-25 11:59 41.59187 45.04882 3267 ft 133 kts 317°
2026-04-25 12:00 41.60524 45.03187 2925 ft 131 kts 316°
2026-04-25 12:00 41.61179 45.02361 2760 ft 127 kts 315°
2026-04-25 12:00 41.62436 45.00770 2427 ft 122 kts 315°
2026-04-25 12:01 41.63038 45.00006 2268 ft 119 kts 315°
2026-04-25 12:01 41.63638 44.99244 2124 ft 118 kts 314°
2026-04-25 12:01 41.64236 44.98482 1956 ft 118 kts 315°
2026-04-25 12:01 41.64825 44.97736 1828 ft 118 kts 314°
2026-04-25 12:02 41.65986 44.96274 1527 ft 105 kts 315°
2026-04-25 12:02 41.66331 44.95840 1536 ft 24 kts 317°
2026-04-25 12:02 41.66435 44.95707 1538 ft 18 kts 316°
2026-04-25 12:03 41.66522 44.95597 1540 ft 18 kts 316°
2026-04-25 12:03 41.66676 44.95404 1545 ft 40 kts 318°
2026-04-25 12:03 41.66826 44.95221 1547 ft 19 kts 317°
2026-04-25 12:03 41.66908 44.95203 1550 ft 10 kts 39°
2026-04-25 12:04 41.66940 44.95247 1552 ft 4 kts 44°
2026-04-25 12:04 41.66957 44.95268 1553 ft 1 kts 43°
2026-04-25 12:04 41.66962 44.95276 1553 ft 1 kts 42°
2026-04-25 12:04 41.66973 44.95289 1554 ft 3 kts 42°
2026-04-25 12:05 41.67009 44.95332 1556 ft 9 kts 48°
2026-04-25 12:05 41.67067 44.95412 1560 ft 13 kts 43°
2026-04-25 12:05 41.67143 44.95507 1568 ft 15 kts 41°
2026-04-25 12:05 41.67213 44.95597 1575 ft 11 kts 43°
2026-04-25 12:06 41.67233 44.95668 1579 ft 12 kts 121°
2026-04-25 12:06 41.67152 44.95777 1577 ft 15 kts 133°
2026-04-25 12:06 41.67095 44.95858 1575 ft 11 kts 133°
2026-04-25 12:06 41.67052 44.95945 1576 ft 11 kts 126°
2026-04-25 12:07 41.67003 44.96017 1576 ft 9 kts 133°
2026-04-25 12:07 41.66960 44.96078 1574 ft 10 kts 133°
2026-04-25 12:07 41.66909 44.96151 1573 ft 9 kts 133°
2026-04-25 12:07 41.66875 44.96200 1573 ft 4 kts 133°
2026-04-25 12:08 41.66847 44.96244 1573 ft 6 kts 107°
2026-04-25 12:08 41.66863 44.96294 1576 ft 4 kts 47°
2026-04-25 12:08 41.66874 44.96308 1577 ft 0 kts 40°
2026-04-25 12:08 41.66872 44.96307 1577 ft 0 kts 38°
2026-04-25 12:09 41.66883 44.96319 1578 ft 3 kts 39°
2026-04-25 12:09 41.66889 44.96327 1578 ft 1 kts 39°
2026-04-25 12:09 41.66898 44.96337 1579 ft 0 kts 40°